Regional Weather Roundup
Issued by NWS

Home | Current Version | Previous Version | Graphics & Text | Print | Product List | Glossary Off
Versions: 1 2 3 4 5 6 7 8 9 10 11 12 13 14 15 16 17 18 19 20 21 22 23 24 25 26 27 28 29 30 31 32 33 34 35 36 37 38 39 40 41 42 43 44 45 46 47 48 49 50

000
ASUS43 KLSX 171307
RWRMO

WEATHER SUMMARY FOR MISSOURI
NATIONAL WEATHER SERVICE SPRINGFIELD MO
700 AM CST SAT FEB 17 2018

NOTE: "FAIR" INDICATES FEW OR NO CLOUDS BELOW 12,000 FEET WITH NO
       SIGNIFICANT WEATHER AND/OR OBSTRUCTIONS TO VISIBILITY.
       CURRENT SKY AND/OR WEATHER CONDITIONS ARE NOT AVAILABLE FOR
       CHILLICOTHE AND FARMINGTON.

MOZ001>031-035>038-043-044-053-054-171400-
...NORTHERN AND WESTERN MISSOURI...

CITY           SKY/WX    TMP DP  RH WIND       PRES   REMARKS
KANSAS CTY INT FLURRIES  33  24  69 S12       29.95S WCI  24
KANSAS C DTWN  LGT RAIN  36  28  73 S9        29.96F WCI  29
LEE`S SUMMIT   FRZ RAIN  32  28  85 S8        29.96F WCI  25
ST JOSEPH      CLOUDY    33  19  56 S9        29.95S WCI  25
CHILLICOTHE      N/A     30  15  53 S6        29.98F WCI  24
KIRKSVILLE     CLOUDY    29  21  72 SE13      29.99F WCI  19

$$
MOZ066>068-077>081-088>096-101>105-171400-
...SOUTHWEST MISSOURI...

CITY           SKY/WX    TMP DP  RH WIND       PRES   REMARKS
SPRINGFIELD    LGT RAIN  37  35  92 SE12      29.99S WCI  29
JOPLIN         CLOUDY    37  37 100 E9        29.98F
BRANSON        LGT RAIN  36  36 100 SE15G23   30.01F FOG     WCI  26

$$
MOZ032>034-039>042-045>050-055>058-069>072-171400-
...CENTRAL MISSOURI...

CITY           SKY/WX    TMP DP  RH WIND       PRES   REMARKS
COLUMBIA       LGT SNOW  32  29  88 S10       30.03F FOG     WCI  24
JEFFERSON CITY LGT SNOW  32  30  92 SE8       30.06F FOG     WCI  25
ROLLA          LGT SNOW  32  28  85 SE6       30.06S FOG     WCI  26
SEDALIA        LGT SNOW  34  34 100 S7        30.02S FOG     WCI  28
WHITEMAN AFB   LGT RAIN  33  31  93 S8        29.96S WCI  26
WARRENSBURG    MIX PCPN  32  32 100 SE7       30.00S WCI  26
OSAGE BEACH    LGT SNOW  33  31  92 SE7       30.05R FOG     WCI  27

$$
MOZ051-052-059>065-171400-
...EAST CENTRAL MISSOURI...

CITY           SKY/WX    TMP DP  RH WIND       PRES   REMARKS
ST LOUIS INTL  LGT SNOW  32  31  96 SE12      30.07F FOG     WCI  23
SPIRIT OF STL  LGT SNOW  33  30  88 E5        30.08F FOG     WCI  29
ST CHARLES     LGT SNOW  31  28  89 SE9       30.08F FOG     WCI  23

$$
MOZ072>076-082>087-097>100-106>115-171400-
...SOUTH CENTRAL AND SOUTHEAST MISSOURI...

CITY           SKY/WX    TMP DP  RH WIND       PRES   REMARKS
CAPE GIRARDEAU LGT SNOW  35  31  85 E8        30.10F FOG     WCI  29
FARMINGTON     CLOUDY    33  29  85 E6        30.05F WCI  28
POPLAR BLUFF   LGT RAIN  35  33  92 E6        30.11F FOG
WEST PLAINS    RAIN      33  32  96 SE7       30.08R FOG     WCI  27

$$



USA.gov is the U.S. government's official web portal to all federal, state and local government web resources and services.